[[{"header":{"parameterUnit":"m.s-1","parameterCategory":1,"la1":30.2991,"la2":30.254,"lo1":-89.0895,"lo2":-89.0444,"dy":0.0017,"dx":0.0017,"nx":28,"ny":28,"refTime":"2025-06-03T21:00:00:Z","depth":0,"parameterNumber":2,"parameterNumberName":"U-component_of_WINDS"},"data":[0,0,0,0,0,0,0,0,0,0,0,0,0,0,0,0,0,0,0,0,0,0,0,0,0,0,0,0,0,0,0,0,0,0,0,0,0,0,0,0,0,0,0,0,0,0,0,0,0,0,0,0,0,0,0,0,0,0,-5.3804,-5.3804,0,-5.3863,-5.3863,-5.3864,-5.3786,-5.3783,-5.3781,-5.3778,-5.3836,-5.384,-5.3844,0,0,0,0,0,0,0,0,0,0,0,0,0,-5.3621,-5.3625,-5.3804,-5.3804,-5.3805,-5.3862,-5.3863,-5.3864,-5.3787,-5.3783,-5.378,-5.3777,-5.3834,-5.3839,-5.3844,0,0,0,0,0,0,0,0,0,0,0,0,0,-5.3692,-5.3626,-5.3803,-5.3774,-5.3771,-5.3862,-5.3863,-5.3864,-5.3787,-5.3783,-5.3779,-5.3775,-5.3833,-5.3839,-5.3845,-5.3967,0,0,-5.3864,-5.3867,0,0,0,0,0,0,0,0,-5.3688,-5.3699,-5.3777,-5.3776,-5.3774,-5.3813,-5.382,-5.3899,-5.3789,-5.3781,-5.3778,-5.3773,-5.3831,-5.3837,-5.3858,-5.397,-5.3972,-5.3864,-5.3868,-5.3871,-5.3873,0,0,0,0,0,0,0,-5.3683,-5.3696,-5.3827,-5.3778,-5.3776,-5.3756,-5.3762,-5.3835,-5.3829,-5.3782,-5.3776,-5.3784,-5.3829,-5.3852,-5.3858,-5.3973,-5.3864,-5.387,-5.3874,-5.3876,-5.4186,-5.419,0,0,0,0,0,0,-5.3682,-5.3692,-5.3825,-5.3829,-5.372,-5.3763,-5.3769,-5.3804,-5.3828,-5.3828,-5.3788,-5.378,-5.3843,-5.3851,-5.386,-5.4002,-5.3871,-5.3877,-5.388,-5.4181,-5.4187,-5.4192,0,0,0,0,0,0,-5.3679,-5.3695,-5.3823,-5.3759,-5.3774,-5.377,-5.3811,-5.3808,-5.383,-5.3833,-5.3831,-5.3812,-5.384,-5.3851,-5.3941,-5.4003,-5.3879,-5.3885,-5.4176,-5.4183,-5.4189,-5.4288,0,0,0,0,0,0,-5.3674,-5.3694,-5.3741,-5.3761,-5.3777,-5.3903,-5.3815,-5.3812,-5.3841,-5.3832,-5.3855,-5.3854,-5.3838,-5.3932,-5.3947,-5.4009,-5.389,-5.417,-5.4179,-5.4187,-5.4279,-5.4297,-5.4313,0,0,0,0,0,-5.3668,-5.3767,-5.3744,-5.376,-5.3836,-5.3907,-5.3916,-5.3896,-5.3847,-5.3893,-5.3895,-5.3854,-5.3995,-5.3942,-5.3958,-5.4023,-5.4166,-5.4177,-5.4187,-5.4272,-5.4294,-5.4313,0,0,0,0,0,0,-5.3754,-5.3769,-5.3744,-5.3852,-5.3879,-5.3894,-5.3952,-5.3921,-5.3961,-5.3951,-5.3923,-5.3929,-5.4024,-5.4033,-5.3974,-5.4141,-5.4072,-5.4086,-5.4131,-5.4152,-5.4169,-5.4163,-5.3895,0,0,0,0,0,-5.3786,-5.3843,-5.3853,-5.3948,-5.3962,-5.3955,-5.3985,-5.3967,-5.3993,-5.4004,-5.4012,-5.4038,-5.4088,-5.4121,-5.4168,-5.4282,-5.4284,-5.4334,-5.4351,-5.4365,-5.4376,-5.4434,-5.4456,-5.4225,-5.4225,-5.4225,0,0,-5.3852,-5.3867,-5.3904,-5.3965,-5.3984,-5.4042,-5.3965,-5.403,-5.4072,-5.4014,-5.4097,-5.4105,-5.4132,-5.4234,-5.4279,-5.4244,-5.4441,-5.4378,-5.4389,-5.4392,-5.4447,-5.4468,-5.4488,-5.4232,-5.4231,-5.423,0,0,-5.4,-5.402,-5.4099,-5.4119,-5.4149,-5.4143,-5.4163,-5.4182,-5.4185,-5.4269,-5.4226,-5.4275,-5.4363,-5.4383,-5.4405,-5.4562,-5.4524,-5.4578,-5.4665,-5.4721,-5.4739,-5.4755,-5.4808,-5.4827,-5.459,-5.459,-5.459,0,-5.4078,-5.4164,-5.4144,-5.4211,-5.4238,-5.4189,-5.4268,-5.4289,-5.4332,-5.4351,-5.4312,-5.4419,-5.4435,-5.4538,-5.4577,-5.4598,-5.4616,-5.4573,-5.4739,-5.4755,-5.4769,-5.4818,-5.4839,-5.4596,-5.4596,-5.4595,-5.4594,0,-5.4257,-5.4318,-5.4378,-5.4421,-5.4455,-5.4528,-5.4517,-5.4554,-5.4534,-5.4532,-5.4618,-5.4635,-5.4682,-5.4706,-5.4687,-5.4807,-5.4784,-5.4744,-5.4672,-5.4797,-5.4843,-5.4862,-5.4605,-5.4603,-5.4601,-5.4599,0,0,-5.4459,-5.4489,-5.4511,-5.4529,-5.4558,-5.4604,-5.4675,-5.4722,-5.4753,-5.4785,-5.4841,-5.4917,-5.4878,-5.4903,-5.4886,-5.4937,-5.5055,-5.4888,-5.4888,-5.4915,-5.5185,-5.5212,-5.5235,-5.5033,-5.5036,-5.5039,-5.5181,0,-5.4604,-5.4726,-5.471,-5.4826,-5.4881,-5.4835,-5.4897,-5.492,-5.4921,-5.4966,-5.4967,-5.5019,-5.4967,-5.4981,-5.5029,-5.5031,-5.5108,-5.5021,-5.5082,-5.5084,-5.5072,-5.526,-5.529,-5.5422,-5.5199,-5.5202,-5.5205,0,-5.479,-5.4828,-5.495,-5.4969,-5.4991,-5.5047,-5.5087,-5.5133,-5.5158,-5.5155,-5.5183,-5.5157,-5.5226,-5.5158,-5.5251,-5.5191,-5.5216,-5.5221,-5.5225,-5.5227,-5.5149,-5.5262,-5.5465,-5.5483,-5.5233,-5.5231,-5.5229,0,-5.492,-5.5003,-5.5085,-5.5103,-5.5128,-5.5167,-5.518,-5.5201,-5.523,-5.5266,-5.5284,-5.5328,-5.5351,-5.5385,-5.5371,-5.5323,-5.5466,-5.5397,-5.5463,-5.5463,-5.5491,-5.5489,-5.5696,-5.5515,-5.5514,-5.5514,-5.5514,0,-5.5082,-5.5157,-5.5144,-5.5194,-5.5277,-5.5258,-5.534,-5.5346,-5.5366,-5.5416,-5.5381,-5.5428,-5.5409,-5.5455,-5.5445,-5.5521,-5.5533,-5.5531,-5.5526,-5.5531,-5.5531,-5.5544,-5.5533,-5.5519,-5.5518,-5.5517,-5.5516,0,-5.5239,-5.5234,-5.5321,-5.5338,-5.5344,-5.5404,-5.5418,-5.5464,-5.5463,-5.5527,-5.554,-5.5538,-5.559,-5.5581,-5.5639,-5.5631,-5.5726,-5.5713,-5.5717,-5.5712,-5.5777,-5.577,-5.5997,-5.6024,-5.5829,-5.5831,-5.5832,0,-5.5341,-5.5398,-5.5421,-5.5452,-5.5467,-5.5519,-5.5548,-5.5531,-5.5562,-5.5596,-5.5638,-5.5687,-5.5725,-5.581,-5.5813,-5.5856,-5.5841,-5.5918,-5.5847,-5.585,-5.5837,-5.5832,-5.5836,-5.593,-5.5932,-5.5934,-5.5936,0,-5.5521,-5.5515,-5.5559,-5.5602,-5.5638,-5.5671,-5.57,-5.5727,-5.5713,-5.575,-5.5803,-5.5833,-5.5892,-5.594,-5.598,-5.5992,-5.596,-5.5959,-5.5975,-5.5979,-5.5978,-5.5975,-5.5751,-5.5952,-5.5951,-5.595,-5.5949,-5.5948,-5.5651,-5.5698,-5.5721,-5.5771,-5.5791,-5.5819,-5.5863,-5.5868,-5.5912,-5.5958,-5.5946,-5.6005,-5.6028,-5.608,-5.6096,-5.6141,-5.6112,-5.6138,-5.6143,-5.6149,-5.6155,-5.5975,-5.6149,-5.6148,-5.6148,-5.6148,-5.6147,0,-5.5825,-5.5838,-5.5884,-5.5926,-5.5964,-5.5934,-5.5965,-5.5998,-5.6051,-5.6076,-5.6114,-5.6174,-5.6221,-5.6228,-5.6271,-5.6306,-5.6293,-5.6318,-5.6313,-5.6315,-5.618,-5.6159,-5.6328,-5.6328,-5.6327,-5.6327,-5.6327,-5.6327,-5.592,-5.5997,-5.5995,-5.6081,-5.6094,-5.6152,-5.6171,-5.6196,-5.6215,-5.6284,-5.6323,-5.6327,-5.6344,-5.6389,-5.643,-5.643,-5.6446,-5.6476,-5.6471,-5.6343,-5.6325,-5.6308,-5.6288,-5.6481,-5.6481,-5.6602,-5.6603,-5.6604]},{"header":{"parameterUnit":"m.s-1","parameterCategory":1,"la1":30.2991,"la2":30.254,"lo1":-89.0895,"lo2":-89.0444,"dy":0.0017,"dx":0.0017,"nx":28,"ny":28,"refTime":"2025-06-03T21:00:00:Z","depth":0,"parameterNumber":3,"parameterNumberName":"V-component_of_WINDS"},"data":[0,0,0,0,0,0,0,0,0,0,0,0,0,0,0,0,0,0,0,0,0,0,0,0,0,0,0,0,0,0,0,0,0,0,0,0,0,0,0,0,0,0,0,0,0,0,0,0,0,0,0,0,0,0,0,0,0,0,3.3494,3.3494,0,3.3492,3.3492,3.3492,3.3417,3.3415,3.3413,3.3411,3.3409,3.341,3.3412,0,0,0,0,0,0,0,0,0,0,0,0,0,3.3433,3.3435,3.3494,3.3494,3.3494,3.3492,3.3492,3.3492,3.3417,3.3415,3.3413,3.341,3.3408,3.341,3.3412,0,0,0,0,0,0,0,0,0,0,0,0,0,3.3448,3.3435,3.3494,3.3457,3.3453,3.3492,3.3492,3.3492,3.3418,3.3415,3.3412,3.3409,3.3407,3.341,3.3412,3.3487,0,0,3.342,3.3422,0,0,0,0,0,0,0,0,3.3447,3.345,3.3462,3.3459,3.3456,3.3452,3.3469,3.349,3.3419,3.3431,3.3411,3.3408,3.3425,3.3426,3.3432,3.3487,3.3487,3.3421,3.3422,3.3423,3.3424,0,0,0,0,0,0,0,3.3446,3.345,3.3493,3.3462,3.3458,3.344,3.3439,3.3473,3.3445,3.343,3.3424,3.3425,3.3423,3.343,3.3432,3.3487,3.3421,3.3423,3.3424,3.3425,3.3602,3.3605,0,0,0,0,0,0,3.3451,3.345,3.3493,3.3493,3.3444,3.3443,3.3442,3.3456,3.3444,3.3439,3.3428,3.3422,3.3427,3.3429,3.3431,3.3517,3.3423,3.3426,3.3427,3.3599,3.3602,3.3606,0,0,0,0,0,0,3.345,3.3455,3.3493,3.347,3.3473,3.3447,3.3464,3.3457,3.3464,3.3442,3.3437,3.344,3.3425,3.3428,3.3473,3.3515,3.3427,3.3429,3.3595,3.36,3.3604,3.3689,0,0,0,0,0,0,3.3448,3.3455,3.3483,3.3471,3.3475,3.3536,3.3466,3.346,3.3469,3.3461,3.3453,3.3448,3.3423,3.347,3.3476,3.3517,3.3431,3.3591,3.3597,3.3602,3.3682,3.3696,3.3707,0,0,0,0,0,3.3446,3.3507,3.3485,3.3491,3.3509,3.3539,3.3541,3.351,3.3473,3.35,3.3487,3.3449,3.3511,3.3475,3.3482,3.3524,3.3588,3.3595,3.3602,3.3676,3.3693,3.3707,0,0,0,0,0,0,3.3524,3.3505,3.348,3.3539,3.3541,3.3526,3.356,3.3529,3.3541,3.3533,3.3495,3.3493,3.3545,3.354,3.3501,3.3596,3.3543,3.3551,3.3597,3.3613,3.3625,3.3624,3.3433,0,0,0,0,0,3.3549,3.3574,3.3556,3.3609,3.3612,3.3586,3.3597,3.3574,3.3574,3.3575,3.3564,3.3566,3.3585,3.3599,3.3616,3.3682,3.3678,3.3714,3.3727,3.3738,3.3745,3.3778,3.3794,3.3629,3.3629,3.3628,0,0,3.3598,3.3591,3.3609,3.3625,3.3623,3.365,3.3587,3.3618,3.3637,3.3579,3.3621,3.3614,3.3614,3.367,3.3694,3.3667,3.379,3.3747,3.3755,3.3756,3.3787,3.3803,3.3817,3.3633,3.3633,3.3632,0,0,3.3702,3.37,3.3744,3.3744,3.3744,3.3726,3.3737,3.3727,3.372,3.3762,3.3719,3.3742,3.3777,3.3778,3.3783,3.3889,3.3854,3.3896,3.3962,3.3995,3.4008,3.4019,3.4056,3.407,3.3904,3.3904,3.3904,0,3.3764,3.3803,3.3771,3.3805,3.3812,3.3762,3.3806,3.3808,3.3813,3.3819,3.3789,3.3832,3.3828,3.3883,3.391,3.3916,3.3927,3.3896,3.4009,3.402,3.403,3.4064,3.4078,3.3909,3.3908,3.3908,3.3908,0,3.3878,3.3906,3.3942,3.3948,3.396,3.3999,3.3973,3.3989,3.3965,3.3951,3.3995,3.3989,3.4003,3.4015,3.3992,3.4067,3.405,3.4016,3.3961,3.4051,3.4083,3.4096,3.3916,3.3914,3.3913,3.3912,0,0,3.4029,3.4018,3.4032,3.4034,3.403,3.405,3.4088,3.4102,3.4117,3.4123,3.4152,3.4183,3.4151,3.4157,3.4134,3.4163,3.4247,3.4124,3.4124,3.4146,3.4328,3.4353,3.4369,3.4225,3.4227,3.4229,3.4328,0,3.4129,3.4191,3.4163,3.4228,3.4253,3.4206,3.4238,3.424,3.4228,3.4247,3.4235,3.4257,3.4213,3.4216,3.4244,3.4231,3.4282,3.4224,3.425,3.4252,3.425,3.4386,3.4412,3.4505,3.434,3.4342,3.4344,0,3.4252,3.4263,3.4331,3.4323,3.4332,3.4361,3.4373,3.4392,3.4393,3.4382,3.439,3.436,3.4396,3.4344,3.4392,3.4352,3.4362,3.4358,3.436,3.436,3.4302,3.4387,3.4535,3.4548,3.4363,3.4361,3.436,0,3.4354,3.4386,3.443,3.4434,3.4426,3.4447,3.4445,3.4443,3.4453,3.4464,3.447,3.4485,3.4492,3.4504,3.4479,3.4443,3.453,3.4476,3.4521,3.4522,3.454,3.4539,3.4689,3.455,3.455,3.4549,3.4549,0,3.4466,3.4509,3.4475,3.4502,3.4549,3.4518,3.4565,3.4557,3.4556,3.458,3.4542,3.4566,3.4532,3.4553,3.4534,3.4576,3.458,3.4572,3.4566,3.4574,3.4575,3.4578,3.4571,3.4553,3.4552,3.4552,3.4551,0,3.4586,3.4566,3.4611,3.46,3.4598,3.4633,3.4623,3.4648,3.4634,3.4666,3.4672,3.465,3.4673,3.465,3.4671,3.4658,3.4714,3.47,3.4714,3.4709,3.4755,3.475,3.4911,3.493,3.4781,3.4782,3.4784,0,3.4659,3.469,3.4683,3.4697,3.4697,3.472,3.4731,3.4702,3.4715,3.4718,3.4743,3.4762,3.4775,3.4814,3.48,3.4816,3.48,3.4855,3.4802,3.4809,3.4799,3.4796,3.4799,3.4865,3.4867,3.4869,3.487,0,3.4788,3.4777,3.4794,3.4808,3.4823,3.4832,3.4839,3.4852,3.4822,3.4839,3.4861,3.4872,3.4894,3.4913,3.4925,3.4922,3.4891,3.4887,3.4898,3.4906,3.4912,3.4908,3.4741,3.4883,3.4882,3.4881,3.488,3.488,3.4885,3.4911,3.4911,3.4931,3.4933,3.4941,3.4963,3.4953,3.4971,3.4986,3.4968,3.4996,3.4996,3.5009,3.501,3.5031,3.5008,3.5024,3.5028,3.5032,3.5038,3.4911,3.5034,3.5033,3.5033,3.5032,3.5032,0,3.5012,3.5009,3.5029,3.504,3.5056,3.5026,3.5032,3.5048,3.5073,3.5076,3.509,3.5116,3.5135,3.5123,3.5139,3.5159,3.5145,3.5164,3.5161,3.5161,3.5059,3.5047,3.5175,3.5175,3.5175,3.5175,3.5174,3.5174,3.508,3.5122,3.511,3.5153,3.515,3.5177,3.5183,3.5189,3.5191,3.5222,3.5238,3.5231,3.5228,3.5243,3.5259,3.5255,3.5262,3.5286,3.5277,3.5182,3.5168,3.5154,3.5143,3.5289,3.5289,3.5377,3.5377,3.5378]}]]